User: anonymous   Login
Location: Caltech
(34.1382°N, 118.1253°W)
Time: 20:04:29
(UTC-08:00)
Language:

Iridium 70 - Orbit

View from above orbital plane
View from above orbital plane
View from above satellite
View from above satellite

Ground track
Ground track

The orbit data is extracted from the following two-line orbital elements,

1 25342U 98032A   16038.53347907  .00000073  00000-0  18830-4 0  9998
2 25342  86.3935  71.4434 0002183  97.2491  65.4795 14.34218367928050
Epoch (UTC): 07 February 2016 12:48:12
Eccentricity: 0.0002183
inclination: 86.3935°
perigee height: 776 km
apogee height: 779 km
right ascension of ascending node: 71.4434°
argument of perigee: 97.2491°
revolutions per day: 14.34218367
mean anomaly at epoch: 65.4795°
orbit number at epoch: 92805

The dashed part of the orbit path shows where the satellite is in the earth's shadow,  

DLR